Terminal Aerodrome Forecast
Issued by NWS

Home | Current Version | Previous Version | Text Only | Print | Product List | Glossary Off
Versions: 1 2 3 4 5 6 7 8 9 10 11 12 13 14 15

371
FTUS43 KTOP 250520
TAFFOE
TAF
KFOE 250520Z 2506/2606 33004KT P6SM BKN100
     FM251300 35006KT P6SM SCT200=

USA.gov is the U.S. government's official web portal to all federal, state and local government web resources and services.